Location: Les Jeannots
(43.2262°N, 5.5774°E)
Time: 02:02:02
(UTC+00:00)

Cosmos 1680 Rocket - Pass Details

Date: 05 July 2020
Orbit: 760 x 781 km, 74.1° (Epoch: 04 August)

Event Time Altitude Azimuth Distance (km) Brightness Sun altitude
Exits shadow 21:35:41 31° 131° (SE) 1,356 4.2 -17.9°
Maximum altitude 21:36:59 35° 101° (E) 1,244 4.2 -18.1°
Drops below altitude 10° 21:41:47 10° 37° (NE) 2,343 6.3 -18.5°
Sets 21:44:20 0° 29° (NNE) 3,276 7.2 -18.7°
